星链-37227(STARLINK-37227)

导读

STARLINK-37227(NORAD编号68558)是SpaceX星链(Starlink)卫星星座中的一颗低轨通信卫星,属于星链Gen2(第二代)星座批次,主要用于提供全球覆盖的高速卫星互联网服务。该卫星由SpaceX通过可复用猎鹰9号火箭发射入轨,运行在近地轨道,具备自动脱轨再入大气层的能力,以减少太空垃圾。它延续了星链卫星的设计,配备了氪离子推进系统,可进行轨道调整,满足星座组网和流量调度需求,支撑星链在偏远地区通信、灾害应急等场景的服务能力。

Basic Information
目录编号:
68558
目录名称:
STARLINK-37227
国际标识:
2026-070S
轨道中心:
EARTH
卫星名称:
星链-37227
卫星全名:
星链-37227(STARLINK-37227)
卫星状态:
在轨 (已飞行164 天)
发射日期:
2026-04-02 UTC
国别 :
美国 (US)
星等 :
--
This satellite is enrolled in the Space Conjunction Data Service (SCDS) and the current flight risk assessment level is: No High Risk
Orbit Information
数据来源 国际轨道数据 AOE轨道数据
星历时间 2026-09-13T12:02:45+0800
8小时前
查看轨道信息
2026-09-06T22:00:00+0800
6天前
查看轨道信息
半长轴 6840.849km 6840.877km
偏心率 0.0001223 0.0001156
轨道倾角 53.157° 53.157°
近地点辐角 83.095° 92.385°
升交点赤经 207.857° 238.642°
平近点角 277.020° 231.748°
近地点 461.875km 461.949km
远地点 463.549km 463.531km
周期 93.848分钟 93.849分钟
每日圈数 15.343971 15.343877
Detailed Information
固有亮度:
5
最大亮度:
2.5
卫星平台:
Starlink V1.0
覆盖范围:
全球
运营商:
太空探索技术公司
运营商所在国:
美国
制造商(研发单位):
太空探索技术公司
制造商所在国:
美国
使用方式:
暂无
Satellite Introduction
Starlink 计划是 SpaceX 推出的全球卫星互联网项目,通过发射低轨道卫星,为全球尤其是偏远地区提供高速、低延迟的互联网服务。自 2019 年起,Starlink 已部署数千颗卫星,旨在缩小全球数字鸿沟,推动互联网普及。该项目还为军事、航空等行业提供通信支持,带来广泛经济效益。
2D Orbit Map
3D Orbit Map
Orbit Altitude Analysis Chart
Orbit Inclination Analysis Chart
Orbit Comprehensive Analysis Chart
View Comprehensive Chart
Conjunction Data List
Event ID Objects TCA Miss Dist (km) Collision Risk Probability Collision Risk Index (CRI) Action
CDM_260910-102505-313606-855822
2026-09-10T
10:25:53+0000
2.571 km
极远距离
1.489337E-6 低风险 0.38
CDM_260913-211904-777106-855821
2026-09-13T
21:19:23+0000
2.906 km
极远距离
1.234111E-6 低风险 0.37
CDM_260914-064305-326606-855821
2026-09-14T
06:43:58+0000
2.918 km
极远距离
1.214048E-6 低风险 0.37
CDM_260913-171805-267306-855821
2026-09-13T
17:18:46+0000
2.983 km
极远距离
1.208779E-6 低风险 0.37
Miss Distance Evolution Trend with All Objects
Collision Probability Evolution Trend with All Objects